Regional Weather Roundup
Issued by NWS

Home | Current Version | Previous Version | Graphics & Text | Print | Product List | Glossary Off
Versions: 1 2 3 4 5 6 7 8 9 10 11 12 13 14 15 16 17 18 19 20 21 22 23 24 25 26 27 28 29 30 31 32 33 34 35 36 37 38 39 40 41 42 43 44 45 46 47 48 49 50

000
ASUS43 KLSX 200407
RWRMO

WEATHER SUMMARY FOR MISSOURI
NATIONAL WEATHER SERVICE SPRINGFIELD MO
1000 PM CST FRI JAN 19 2018

NOTE: "FAIR" INDICATES FEW OR NO CLOUDS BELOW 12,000 FEET WITH NO
       SIGNIFICANT WEATHER AND/OR OBSTRUCTIONS TO VISIBILITY.
       CURRENT SKY AND/OR WEATHER CONDITIONS ARE NOT AVAILABLE FOR
       CHILLICOTHE AND FARMINGTON.

MOZ001>031-035>038-043-044-053-054-200500-
...NORTHERN AND WESTERN MISSOURI...

CITY           SKY/WX    TMP DP  RH WIND       PRES   REMARKS
KANSAS CTY INT CLOUDY    43  28  55 SW17      29.83R
KANSAS C DTWN  CLOUDY    46  29  51 SW13      29.84R
LEE`S SUMMIT   CLOUDY    44  31  60 SW17      29.84R
ST JOSEPH      CLOUDY    37  28  70 S3        29.83R
CHILLICOTHE      N/A     44  27  51 SW7       29.85R
KIRKSVILLE     CLOUDY    43  30  60 SW10      29.84R

$$
MOZ066>068-077>081-088>096-101>105-200500-
...SOUTHWEST MISSOURI...

CITY           SKY/WX    TMP DP  RH WIND       PRES   REMARKS
SPRINGFIELD    CLOUDY    43  30  60 S14       29.94R
JOPLIN         CLOUDY    45  35  68 S17G25    29.94R
BRANSON        CLOUDY    41  32  70 CALM      30.00R

$$
MOZ032>034-039>042-045>050-055>058-069>072-200500-
...CENTRAL MISSOURI...

CITY           SKY/WX    TMP DP  RH WIND       PRES   REMARKS
COLUMBIA       CLOUDY    44  27  51 S14       29.88S
JEFFERSON CITY CLOUDY    45  27  49 SE6       29.91R
ROLLA          CLOUDY    42  29  59 S20G26    29.93R
SEDALIA        CLOUDY    47  31  53 S22G28    29.85F
WHITEMAN AFB   MOCLDY    42  29  59 SW18      29.81S
WARRENSBURG    MOCLDY    41  30  65 S13       29.85S
OSAGE BEACH    CLOUDY    41  28  60 S10       29.93R

$$
MOZ051-052-059>065-200500-
...EAST CENTRAL MISSOURI...

CITY           SKY/WX    TMP DP  RH WIND       PRES   REMARKS
ST LOUIS INTL  CLOUDY    42  25  50 S6        29.93R
SPIRIT OF STL  CLOUDY    45  26  47 S9        29.91S
ST CHARLES     CLOUDY    30  24  78 SE8       29.92S WCI  22

$$
MOZ072>076-082>087-097>100-106>115-200500-
...SOUTH CENTRAL AND SOUTHEAST MISSOURI...

CITY           SKY/WX    TMP DP  RH WIND       PRES   REMARKS
CAPE GIRARDEAU FAIR      33  25  72 SW14      30.09R WCI  23
FARMINGTON     FAIR      35  24  64 S9        29.99S WCI  28
POPLAR BLUFF   FAIR      32  26  78 S6        30.10R WCI  26
WEST PLAINS    CLOUDY    38  27  64 S8        30.03R

$$



USA.gov is the U.S. government's official web portal to all federal, state and local government web resources and services.